Location: Casteau
(50.5142°N, 4.0161°E)
Time: 04:43:03
(UTC+00:00)

Vanguard 1 Rocket - Pass Details

Date: 30 July 2021
Orbit: 650 x 4226 km, 34.3° (Epoch: 21 September)

Event Time Altitude Azimuth Distance (km) Brightness Sun altitude
Rises 14:10:36 0° 261° (W) 5,786 12.1 47.5°
Reaches altitude 10° 14:16:10 10° 248° (WSW) 4,077 11.7 46.8°
Maximum altitude 14:22:47 20° 206° (SSW) 2,526 10.7 45.9°
Drops below altitude 10° 14:27:22 10° 160° (SSE) 2,687 10.0 45.3°
Sets 14:30:07 0° 142° (SE) 3,348 10.3 44.9°
